カタログに戻る

IRIDIUM 169

運用中通信PO
NORAD 43926·PAYLOAD·🇺🇸 United States

打ち上げ Jan 11, 2019 から Vandenberg Space Force Base

Loading…

次のパス (今後24時間)

TLE

最新Source: CelesTrak SupGP

元期: Sep 14, 2026, 22:26 UTC

1 43926C 19002E   26257.93506944 -.00001027  00000+0 -33618-3 0  2570
2 43926  86.4282 347.6911 0002376  86.9019  44.9127 14.38611618    15

AllMySatでIRIDIUM 169をリアルタイム追跡

Download on the App Store